Location: *
(49.2333°S, 177.3500°W)
Time: 10:01:20
(UTC+00:00)

Daily predictions for brighter satellites

Satellite Brightness Start Highest point End
(mag) Time Altitude Azimuth Time Altitude Azimuth Time Altitude Azimuth
Okean 1 3.4 12:05:08 57° NNE 12:05:50 71° E 12:09:58 10° SSE
Cosmos 1346 Rocket 2.7 12:06:26 60° NNW 12:07:07 82° W 12:11:10 10° S
Iridium 2 4.4 12:05:25 10° SSW 12:09:05 40° W 12:09:36 38° WNW
ATLAS CENTAUR R/B 3.9 12:08:50 10° W 12:10:28 12° WNW 12:10:28 12° WNW
Cosmos 1818 3.5 12:06:20 10° SW 12:11:45 72° NW 12:13:45 39° NNE
Cosmos 2369 Rocket 2.8 12:10:10 21° WNW 12:13:44 52° SW 12:19:17 10° SSE
Cosmos 1975 2.9 12:09:32 10° SSW 12:13:44 71° W 12:14:28 56° NNW
GP-B 3.1 12:10:47 10° S 12:15:21 89° ESE 12:16:31 50° N
ARIANE 5 R/B 4.2 12:11:28 11° ENE 12:15:23 28° ESE 12:19:40 10° S
CZ-2D R/B 3.8 12:12:03 10° ENE 12:16:39 29° ESE 12:21:20 10° S
Helios 1A Rocket 4.1 12:19:41 29° WNW 12:20:17 30° W 12:24:04 10° SW
CZ-2C R/B 3.3 12:19:40 10° SSE 12:24:24 51° E 12:25:53 37° NNE
Cosmos 1867 4.1 12:26:37 35° NNE 12:27:59 42° ENE 12:33:03 10° SE
Cosmos 1238 Rocket 2.3 12:28:25 66° W 12:28:27 66° W 12:31:34 10° S
Cosmos 1689 Rocket 3.1 12:27:56 10° SSE 12:31:04 39° E 12:31:08 39° E
IRS-P3 4.1 12:28:54 37° NNE 12:31:06 85° WNW 12:36:35 10° SSW
Cosmos 1850 Rocket 4.2 12:26:10 10° SSW 12:31:19 54° WNW 12:32:48 40° NNW
Cosmos 1812 3.6 12:30:39 36° WNW 12:31:29 41° WSW 12:35:16 10° S
CZ-4C R/B 2.8 12:28:18 10° SSE 12:31:36 70° ENE 12:31:38 69° ENE
SAR-Lupe-2 3.7 12:31:14 10° S 12:34:52 64° WSW 12:35:22 56° WNW
Cosmos 2084 Rocket 4.4 12:35:12 35° NE 12:35:59 37° ENE 12:40:30 10° SE
Cosmos 1656 Rocket 3.7 12:34:53 39° N 12:36:53 67° ENE 12:42:20 10° SSE
CBERS-1 4.0 12:34:56 36° NNE 12:37:10 85° ESE 12:42:26 10° SSW
Cosmos 2181 Rocket 4.4 12:36:03 30° NW 12:39:07 57° WSW 12:45:27 10° S
Cosmos 2219 3.1 12:33:50 10° SSW 12:39:31 73° WNW 12:41:58 35° N
Cosmos 2366 rocket 4.0 12:33:58 10° SSW 12:40:24 75° W 12:43:24 34° N
Cosmos 1666 2.9 12:42:21 10° S 12:46:16 68° E 12:47:16 46° NE
Resurs 1-4 Rocket 2.9 12:43:16 17° NE 12:47:08 48° ESE 12:52:18 10° S
Spot 4 Rocket 4.4 12:45:31 25° NE 12:48:28 64° ESE 12:53:40 10° S
Cosmos 2058 Rocket 4.3 12:47:35 10° S 12:51:55 38° ESE 12:54:44 19° NE
Meteor 2-9 Rocket 4.3 12:48:32 10° S 12:54:25 78° ESE 12:57:31 28° NNE
Cosmos 1809 Rocket 4.4 12:50:08 10° SSW 12:56:27 82° W 12:59:39 31° N
USA 32 4.0 12:54:18 37° N 12:56:28 89° WSW 13:01:48 10° S
ADEOS 3.7 12:54:20 26° NNE 12:57:20 73° ESE 13:02:39 10° SSW
Cosmos 1340 2.9 12:59:34 47° NNE 13:00:28 65° E 13:04:19 10° SSE
Cosmos 1821 Rocket 4.5 12:54:51 10° S 13:01:05 57° ESE 13:05:41 18° NNE
Meteor 2-21 4.5 12:56:30 10° SSW 13:02:48 77° W 13:06:03 30° N
CZ-4B R/B 1.7 13:01:21 10° S 13:05:06 71° WSW 13:05:54 51° NW
FALCON 9 R/B 4.2 13:06:21 18° NNE 13:06:21 18° NNE 13:11:11 10° NE
ATLAS 3B R/B 4.4 13:03:20 12° NE 13:06:53 18° ENE 13:11:03 10° ESE
Lacrosse 5 rocket 1.9 13:04:13 23° WNW 13:07:05 69° SSW 13:11:49 10° SE
NPP 4.1 13:10:10 32° NNW 13:12:09 46° W 13:17:25 10° SSW
Cosmos 1743 3.6 13:09:06 10° SSW 13:12:46 35° W 13:13:23 33° WNW
Lacrosse 4 Rocket 4.1 13:13:26 10° WSW 13:16:13 16° SSW 13:19:03 10° S
UNKNOWN OBJECT B 4.0 13:19:07 16° NE 13:22:03 41° ESE 13:25:51 10° S
Gbstr 26 Del rocket 3.8 13:19:21 10° WSW 13:21:48 28° WNW 13:21:48 28° WNW
Meteor 1-23 Rocket 4.3 13:20:37 30° N 13:23:43 86° E 13:29:37 10° SSE
ATLAS 5 CENTAUR R/B 2.9 13:20:48 27° N 13:23:59 49° ENE 13:29:49 10° SE
Meteor 2-4 Rocket 3.7 13:21:39 31° NNW 13:24:29 82° WSW 13:30:04 10° S
Okean O Rocket 4.0 13:22:22 10° ENE 13:25:44 22° ESE 13:29:08 10° SSE
Landsat 5 3.7 13:22:09 10° S 13:25:59 54° WSW 13:27:15 36° NW
Cosmos 2297 Rocket 2.4 13:21:49 10° SSW 13:27:34 72° ESE 13:33:15 10° NE
Cosmos 1726 Rocket 3.5 13:24:22 10° SSW 13:28:52 75° W 13:30:48 33° N
Meteor 2-16 Rocket 4.5 13:24:37 10° SSW 13:30:48 70° W 13:34:23 26° N
USA 215 4.1 13:24:26 10° ESE 13:30:48 52° SSW 13:37:10 10° W
SeaSat 1 2.5 13:28:35 13° NNE 13:33:01 86° ESE 13:38:03 10° SSW
CZ-4C R/B 3.5 13:29:34 22° N 13:34:04 44° ENE 13:40:38 10° SE
Meteor 1-15 Rocket 4.4 13:29:05 10° SSW 13:35:02 68° W 13:38:35 25° N
Okean 1-7 Rocket 4.3 13:33:32 28° NW 13:35:25 43° WSW 13:39:51 10° S
ADEOS II 4.4 13:31:37 10° ENE 13:35:43 23° ESE 13:39:49 10° S
Cosmos 1354 Rocket 4.2 13:33:39 10° SSW 13:39:04 76° ESE 13:44:22 10° NNE
Cosmos 2227 Rocket 2.1 13:34:30 10° SSW 13:40:14 75° WNW 13:44:54 16° NNE
Cosmos 1943 Rocket 3.8 13:35:57 10° WNW 13:40:46 28° SW 13:45:39 10° SSE
IRS-1D 3.6 13:39:42 27° N 13:42:26 60° WNW 13:47:33 10° SSW
Abrixas rocket 2.1 13:42:44 33° WNW 13:44:09 77° N 13:47:35 10° E
Blok-2BL 4.1 13:44:54 23° SW 13:44:54 23° SW 13:46:28 10° SSE
CZ-2D R/B 3.9 13:41:32 16° NNE 13:44:47 62° ESE 13:49:06 10° S
Cosmos 1025 Rocket 3.6 13:43:16 29° NW 13:45:07 47° WSW 13:49:26 10° S
Cosmos 1515 4.1 13:46:20 27° NNE 13:48:16 61° E 13:52:11 10° SSE
Cosmos 2369 4.0 13:49:27 23° N 13:53:01 60° ENE 13:58:43 10° SE
ARIANE 5 R/B 2.8 13:51:49 26° NNW 13:54:18 48° W 13:59:14 10° SSW
Okean 2 3.8 13:52:45 30° NW 13:54:35 53° WSW 13:58:46 10° S
CZ-2D R/B 2.4 13:53:23 24° NNW 13:56:27 52° W 14:01:52 10° SSW
Cosmos 2228 3.1 13:53:29 10° SSW 13:57:50 64° W 14:00:10 26° N
Cosmos 1812 Rocket 4.2 13:53:55 10° S 13:58:18 54° ESE 14:02:37 10° NNE
Cosmos 482 Debris 3.0 13:55:26 10° WSW 13:58:42 87° NNW 14:00:52 10° ENE
PSLV R/B 4.0 13:58:11 10° SSE 14:02:32 83° ENE 14:05:04 24° N
CZ-2C R/B 4.5 14:00:09 10° S 14:03:59 24° WSW 14:06:56 14° WNW
ASTEX 1 4.0 14:02:32 10° SSE 14:07:34 57° E 14:12:04 13° N
Cosmos 1656 4.2 14:03:55 18° N 14:07:50 51° ENE 14:13:09 10° SE
Cosmos 1892 Rocket 4.0 14:06:06 25° NW 14:08:20 48° WSW 14:12:39 10° S
Cosmos 2082 3.9 14:03:46 10° SW 14:09:16 52° WNW 14:13:56 14° N
Meteor 2-8 Rocket 4.5 14:05:39 21° NNW 14:09:56 76° W 14:16:07 10° S
Cosmos 1867 4.4 14:07:15 14° WNW 14:11:35 44° SW 14:16:47 10° SSE
SL-16 R/B 4.5 14:06:41 10° SE 14:11:36 24° E 14:16:27 10° NE
MOS 1-B 4.3 14:07:09 13° N 14:12:26 73° WNW 14:18:20 10° SSW
Cosmos 968 Rocket 4.4 14:15:16 10° SSW 14:20:22 50° ESE 14:25:27 10° NE
Cosmos 1766 3.9 14:18:20 10° S 14:22:17 55° ESE 14:26:12 10° NNE
Cosmos 1302 Rocket 4.3 14:20:39 20° NW 14:24:14 57° WSW 14:29:27 10° SSE
Cosmos 2278 3.8 14:21:19 19° NNW 14:25:30 79° WSW 14:31:20 10° SSE
SL-08 R/B 3.9 14:21:04 10° SSE 14:25:41 52° E 14:30:05 11° N
Resurs 1-4 Rocket 3.1 14:24:22 19° NW 14:27:11 29° W 14:31:52 10° SSW
IRAS Rocket 4.3 14:22:07 10° N 14:27:30 64° WNW 14:33:03 10° SSW
Cosmos 2058 Rocket 4.4 14:25:55 10° SSW 14:29:45 26° W 14:31:59 18° NW
Cosmos 1459 Rocket 4.4 14:27:03 10° S 14:33:12 64° ESE 14:39:14 10° NNE
CZ-4B R/B 3.2 14:29:30 10° NNE 14:33:50 73° ESE 14:38:00 10° S
ADEOS Rocket 3.3 14:27:45 10° N 14:34:23 55° W 14:40:29 10° SSW
Cosmos 1727 Rocket 4.1 14:29:06 13° N 14:34:52 88° W 14:41:17 10° S
Meteor 1-22 Rocket 4.4 14:34:05 10° SSW 14:40:18 76° W 14:46:20 10° N
Cosmos 1437 Rocket 3.4 14:37:20 10° S 14:41:31 64° ESE 14:45:40 10° NNE
ERS-2 2.1 14:42:19 10° NNE 14:46:04 79° WNW 14:49:54 10° SSW
Lacrosse 5 rocket 3.2 14:42:42 10° WSW 14:47:01 33° S 14:51:15 10° SE
Okean-O 4.1 14:43:14 10° NE 14:47:27 41° ESE 14:51:42 10° S
GRACE-2 4.0 14:46:39 12° N 14:49:17 81° E 14:52:11 10° S
Lacrosse 5 4.0 14:46:01 10° NNE 14:49:26 18° ENE 14:52:51 10° E
Cosmos 1066 Rocket 4.3 14:44:23 13° NNW 14:49:30 70° WSW 14:55:10 10° S
GRACE-1 3.9 14:47:12 12° N 14:49:49 83° E 14:52:43 10° S
Cosmos 1441 Rocket 3.4 14:46:32 12° N 14:50:11 81° E 14:54:16 10° SSE
PSLV R/B 4.0 14:46:33 10° N 14:50:31 57° W 14:54:27 10° SSW
Atlas Centaur 2 4.1 14:49:30 10° N 14:50:32 10° NNE 14:51:37 10° NNE
Cosmos 1980 Rocket 2.9 14:46:09 10° N 14:51:40 51° ENE 14:57:14 10° SE
Cosmos 2227 4.4 14:46:27 10° SSW 14:52:17 82° ESE 14:57:59 10° NNE
CZ-4B R/B 3.3 14:46:44 10° N 14:52:21 75° WNW 14:58:07 10° SSW
PSLV R/B 3.7 14:51:08 10° NNE 14:55:23 80° ESE 14:59:42 10° SSW
ATLAS 3B R/B 2.7 14:50:36 13° NNW 14:56:27 79° NE 15:03:19 10° SE
UNKNOWN OBJECT B 4.4 14:54:37 14° NW 14:56:45 21° W 14:59:49 10° SW
USA 161 4.1 14:55:24 10° SE 14:57:18 17° E 14:59:15 10° NE
Cosmos 2173 Rocket 4.1 14:53:43 10° S 15:00:12 86° W 15:06:39 10° N
SL-24 R/B 4.4 14:57:16 10° S 15:01:35 53° WSW 15:05:36 11° NW
Okean O Rocket 1.9 14:57:31 10° N 15:01:48 50° W 15:06:09 10° SSW
Cosmos 1602 Rocket 4.3 14:58:21 13° NW 15:01:55 38° WSW 15:06:10 10° S
Cosmos 405 Rocket 3.9 14:59:44 13° NW 15:02:57 34° WSW 15:06:47 10° S
Cosmos 1697 Rocket 2.7 14:59:03 12° NNW 15:04:26 86° WSW 15:10:10 10° SSE
Cosmos 1805 3.4 15:01:14 10° S 15:05:16 84° E 15:09:15 10° N
ATLAS 5 CENTAUR R/B 3.0 15:02:38 10° WNW 15:08:50 49° SW 15:14:35 10° SE
Cosmos 2297 Rocket 3.5 15:06:50 10° SW 15:11:02 21° W 15:15:12 10° NNW
SeaSat 1 4.0 15:08:21 11° NW 15:11:08 16° WNW 15:14:15 10° WSW
USA 215 4.4 15:06:56 10° ESE 15:13:11 47° S 15:19:27 10° WSW
ADEOS II 2.2 15:09:43 10° N 15:14:59 65° WNW 15:20:20 10° SSW
Cosmos 2016 Rocket 4.0 15:11:34 10° S 15:17:47 86° W 15:23:57 10° N
Cosmos 2322 Rocket 3.7 15:13:46 10° NNE 15:18:44 33° ENE 15:23:46 10° SE
Geosat 4.1 15:14:54 10° SSE 15:19:59 74° WSW 15:25:02 10° NW
Cosmos 1437 3.8 15:17:32 10° NW 15:20:32 32° WSW 15:23:39 10° S
Abrixas rocket 2.3 15:17:36 10° W 15:20:59 61° NNW 15:24:21 10° ENE
CZ-4C R/B 3.2 15:15:10 10° WNW 15:22:40 59° SW 15:29:19 10° SE
Cosmos 2227 Rocket 4.0 15:20:52 10° WSW 15:23:17 13° W 15:25:41 10° WNW
Cosmos 1953 2.4 15:19:50 10° SSW 15:24:00 73° W 15:28:03 10° N
Cosmos 1825 Rocket 3.7 15:19:47 10° NNW 15:24:12 62° WSW 15:28:43 10° S
CZ-4B R/B 4.2 15:23:52 10° NNE 15:27:40 71° ESE 15:31:41 10° S
Cosmos 1758 Rocket 3.7 15:23:51 10° NNW 15:28:24 82° W 15:33:02 10° S
GEOS 3 Rocket 3.7 15:23:57 10° SE 15:29:17 80° SW 15:34:30 10° NW
Cosmos 405 4.1 15:27:55 10° SSW 15:31:03 28° W 15:34:08 10° NNW
DEBRIS 2.1 15:29:32 10° W 15:32:59 51° NNW 15:35:04 10° NE
Cosmos 1733 3.9 15:29:38 10° S 15:33:37 62° ESE 15:37:31 10° NNE
Cosmos 1953 Rocket 3.6 15:29:22 10° NNW 15:33:43 67° WSW 15:38:09 10° S
MOS 1 Rocket 4.2 15:32:05 10° NNW 15:37:15 41° W 15:42:28 10° SSW
Cosmos 2123 Rocket 4.3 15:31:16 10° N 15:37:34 77° E 15:44:00 10° SSE
